www.pogodaiklimat.ru

Погода и климат >> Архив погоды >> Азербайджан >> Губа


ПОГОДА в Губе

  • Прогноз погоды в Губе
  • Монитор погоды в Губе

АРХИВ ПОГОДЫ в Губе

Время (UTC), дата Ветер
(напр.,м/с)
 
Видим.   Явления Облачность Т
(С)
Тd
(С)
f
(%)
Тe
(С)
Тes
(С)
Комфортность P
(гПа)
Po
(гПа)
Тmin
(С)
Tmax
(С)
R
(мм)
R24
(мм)
S
(см)
06 15.09 В 1 50 км ясно +20.9 +9.0 46 +23 +32 комфорт 1017.8 955.2 +11.7
09 15.09 В 2 50 км ясно +23.0 +10.3 45 +25 +38 комфорт 1017.3 955.2
12 15.09 В 3 50 км 3/3 1000 м
[Cu hum]
+24.0 +13.1 51 +26 +30 жарко 1016.6 954.7
15 15.09 штиль 0 10 км 8/8 600 м
[Sc]
+20.5 +14.9 70 +23 +23 комфорт 1017.9 955.4
18 15.09 З 3 2000 м 8/8 600 м
[Sc]
+19.2 +13.6 70 +21 +21 комфорт 1020.0 957.0 +24.3
21 15.09 З 3 2000 м 8/8 600 м
[Sc]
+18.9 +9.9 56 +20 +20 1020.3 957.1
00 16.09 З 4 2000 м 8/8 600 м
[Sc]
+18.1 +7.0 48 +18 +18 1020.4 957.0
03 16.09 З 4 50 км 8/0
[Ac As]
+16.6 +6.7 52 +16 +16 1021.3 957.5
06 16.09 ЮВ 2 50 км 8/0
[Ac As]
+23.7 +5.6 31 +24 +27 комфорт 1019.2 957.0 +16.5
09 16.09 В 1 50 км 8/0
[Ac As]
+23.2 +6.2 33 +24 +30 комфорт 1016.0 954.0
12 16.09 В 1 50 км ясно +24.2 +6.4 32 +24 +31 комфорт 1013.2 951.5
15 16.09 штиль 0 50 км ясно +20.7 +13.8 65 +23 +23 комфорт 1012.0 949.8
18 16.09 штиль 0 2000 м ясно +17.4 +10.7 65 +17 +17 1012.1 949.2 +24.8
21 16.09 штиль 0 2000 м ясно +16.2 +10.4 68 +16 +16 1011.2 948.2
00 17.09 штиль 0 2000 м ясно +13.1 +11.7 91 +13 +13 1011.0 948.5
03 17.09 СЗ 3 50 км ясно +16.8 +9.3 61 +17 +17 1011.8 948.7
06 17.09 СЗ 3 50 км ясно +22.6 +15.6 65 +27 +33 душно 1010.8 949.2 +15.6
09 17.09 СВ 2 50 км ясно +24.9 +11.8 44 +26 +39 жарко 1008.9 947.7
12 17.09 СВ 3 50 км ясно +24.3 +12.5 48 +26 +31 жарко 1007.9 946.7
15 17.09 штиль 0 50 км ясно +20.7 +11.8 57 +22 +22 комфорт 1009.1 947.1
18 17.09 З 2 2000 м 9/9 600 м
[Sc]
+20.1 +13.1 64 +23 +23 комфорт 1011.2 949.0 +25.7
21 17.09 штиль 0 2000 м ясно +19.0 +13.4 70 +20 +20 1011.2 948.8
00 18.09 З 2 2000 м ясно +17.2 +12.5 74 +18 +18 1012.8 949.9
03 18.09 З 1 50 км ясно +15.8 +11.8 77 +17 +17 1015.0 951.6
06 18.09 В 3 50 км ясно +22.4 +13.8 58 +26 +31 жарко 1015.2 953.1 +15.5
09 18.09 В 2 10 км 6/6 600 м
[Cu med, cong]
+24.1 +15.3 58 +27 +32 жарко 1014.6 953.0
12 18.09 В 2 10 км 8/8 600 м
[Cb cap]
+21.5 +16.4 73 +25 +26 комфорт 1014.9 952.7
15 18.09 В 3 2000 м ясно +19.5 +15.4 77 +22 +22 комфорт 1015.2 952.6 +25.0
18 18.09 штиль 0 2000 м ясно +16.3 +15.1 93 +16 +16 1014.6 951.4 +25.0
21 18.09 З 3 2000 м ясно +16.3 +12.7 79 +16 +16 1012.3 949.2
00 19.09 З 3 2000 м ясно +15.9 +9.2 64 +15 +15 1011.9 948.6
03 19.09 З 3 50 км ясно +16.9 +5.3 46 +17 +17 1013.5 950.3
06 19.09 С 5 50 км ясно +22.1 +14.1 60 +25 +29 комфорт 1016.1 954.0 +15.0
09 19.09 С 3 10 км 5/5 600 м
[Cu med, cong]
+23.0 +13.7 56 +26 +31 жарко 1017.2 955.2
12 19.09 СВ 2 10 км 10/10 600 м
[Cb cap]
+19.3 +12.1 63 +21 +21 комфорт 1019.4 956.4
15 19.09 СЗ 2 10 км 10/10 600 м
[Cb cap]
+17.4 +12.0 71 +18 +18 1020.5 957.1
18 19.09 З 2 2000 м 10/10 600 м
[Cb cap]
+16.8 +10.2 65 +17 +17 1021.5 957.8 +23.4
21 19.09 С 2 2000 м 9/9 600 м
[Sc]
+16.4 +7.8 57 +17 +17 1020.3 956.6
00 20.09 штиль 0 2000 м 5/5 600 м
[Sc diur, vesp Ci]
+13.3 +10.0 80 +13 +13 1019.5 955.2
03 20.09 штиль 0 10 км 6/6 600 м
[Sc diur, vesp Ci]
+14.0 +10.7 80 +14 +14 1019.2 955.1
06 20.09 В 1 50 км ясно +19.7 +6.8 43 +22 +30 комфорт 1017.0 954.2 +13.2
09 20.09 В 2 50 км 3/3 1000 м
[Cu med, cong Ci fib]
+21.7 +11.5 52 +24 +32 комфорт 1013.3 951.3
12 20.09 В 2 10 км 9/9 600 м
[Sc]
+19.4 +14.2 72 +22 +22 комфорт 1011.6 949.3
15 20.09 штиль 0 10 км 9/9 600 м
[Sc]
+18.1 +14.5 79 +18 +18 1010.5 947.9
18 20.09 штиль 0 2000 м ясно +16.8 +14.0 84 +17 +17 1009.9 947.0 +22.4
21 20.09 З 2 2000 м ясно +14.4 +12.2 87 +14 +14 1006.9 943.7
00 21.09 З 2 2000 м ясно +13.9 +10.6 80 +13 +13 1004.4 941.3
03 21.09 СЗ 2 2000 м 10/0 300 м
[As op]
+15.2 +13.7 91 +15 +15 1008.1 945.0
06 21.09 З 3 10 км 8/8 600 м
[Cu med, cong]
+17.7 +13.4 76 +18 +19 1009.3 946.7 +13.4
09 21.09 СВ 3 2000 м 10/0 300 м
[As op]
+14.2 +12.2 88 +13 +15 1011.1 947.6
12 21.09 С 2 2000 м слаб. дождь 10/0 300 м
[As op]
+12.9 +11.5 91 +12 +13 1014.0 950.0
15 21.09 С 2 2000 м {дождь} 10/0 300 м
[As op]
+12.3 +9.9 85 +11 +11 1017.0 952.6
18 21.09 З 2 2000 м {дождь} 10/0 300 м
[As op]
+10.4 +8.5 88 +9 +9 1019.2 954.3 +19.4 1
21 21.09 штиль 0 2000 м слаб. дождь 10/0 300 м
[As op]
+8.3 +5.6 83 +8 +8 1021.2 955.7
00 22.09 штиль 0 2000 м слаб. дождь 10/0 300 м
[As op]
+8.1 +5.6 84 +7 +7 1020.9 955.3
03 22.09 штиль 0 2000 м слаб. дождь 10/0 300 м
[As op]
+8.2 +6.4 88 +7 +7 1023.6 957.9

 

Местоположение метеостанции Губа (Азербайджан): широта 41.37 долгота 48.52 высота над уровнем моря 552 м.

В архиве по умолчанию представлена погода в Губе за последнюю неделю. Архивные данные за месяц целиком и за предыдущие месяцы, начиная с января 2011 года, Вы можете получить, выбрав интересующий диапазон дат из раскрывающегося списка и нажав кнопку "Ввод!".


*Определитесь, кто Вы:
робот инопланетянин человек

Внимание! Время в таблицах - всемирное. Для получения местного времени необходимо прибавить поправку, которая равна 4 ч.

Смотрите также архив погоды в соседних городах и на ближайших метеорологических станциях:

Погода в Касумкенте (Дагестан, Россия) (45 км)
Погода в Ахты (Дагестан, Россия) (65 км)
Погода в Габале (Азербайджан) (70 км)
Погода в Дербенте (Дагестан, Россия) (80 км)
Погода в Шемахе (Азербайджан) (83 км)
Погода в Маразе (Азербайджан) (100 км)
Погода в Геокчае (Азербайджан) (103 км)
Погода в Шеках (Азербайджан) (114 км)
Погода в Курдамире (Азербайджан) (119 км)
Погода в Изберге (Дагестан, Россия) (138 км)

Пояснения к столбцам:

Ветер - указаны скорость ветра в м/с - средняя за 10 мин, порывы в срок и между сроками (в фигурных скобках) и направление, откуда дует ветер: С - северный, СВ - северо-восточный, В - восточный, ЮВ - юго-восточный, Ю - южный, ЮЗ - юго-западный, З - западный, СЗ - северо-западный.
Видимость - горизонтальная дальность видимости в метрах или километрах. При видимости от 1 до 10 км при отсутствии осадков обычно наблюдается дымка, при ухудшении видимости до 1 км и менее - туман. В сухую погоду видимость может ухудшаться дымом, пылью или мглою.
Явления - указаны атмосферные явления, наблюдавшиеся в срок или в последний час перед сроком; фигурными скобками обозначены явления, наблюдавшиеся между сроками (за 1-3 часа до срока); квадратными скобками обозначены град или гололедные отложения с указанием их диаметра в мм.
Облачность - указаны через наклонную черту общая и нижняя облачность в баллах и высота нижней границы облаков в метрах; квадратными скобками обозначены формы облаков: Ci - перистые, Cs - перисто-слоистые, Cc - перисто-кучевые, Ac - высококучевые, As - высокослоистые, Sc - слоисто-кучевые, Ns - слоисто-дождевые, Cu - кучевые, Cb - кучево-дождевые. Подробнее классификацию облаков см. в Атласе облаков (PDF).
T - Температура воздуха - температура, измеренная на высоте 2 м над землей.
Td - Температура точки росы - температура, при понижении до которой содержащийся в воздухе водяной пар достигнет насыщения.
f - Относительная влажность воздуха - влажноcть воздуха, измеренная на высоте 2 м над землей.
Te - Эффективная температура - температура, которую ощущает одетый по сезону человек в тени. Характеристика душности погоды. При расчете учитывается влияние влажности воздуха и скорости ветра на теплоощущения человека.
Tes - Эффективная температура на солнце - температура, которую ощущает человек, с поправкой на солнечный нагрев. Характеристика знойности погоды. Зависит от высоты солнца над горизонтом, облачности и скорости ветра. Ночью, в пасмурную погоду, а также при ветре 12 м/с и более поправка равна нулю.
P - Атмосферное давление - приведенное к уровню моря атмосферное давление.
Po - Атмосферное давление - измеренное на уровне метеостанции атмосферное давление.
Tmin - Минимальная температура - минимум температуры воздуха на высоте 2 м над землей.
Tmax - Максимальная температура - максимум температуры воздуха на высоте 2 м над землей.
R - Количество осадков - Количество выпавших осадков за период времени, мм. При наведении курсора мыши на число - период времени, за который выпало указанное количество осадков.
R24 - Количество осадков - Количество выпавших осадков за 24 часа, мм.
S - Снежный покров - Высота снежного покрова, см. При наведении курсора мыши на число - состояние снежного покрова и степень покрытия местности в баллах.